Probability
1 1 0 0 0 0 0 0 0 0 0 0 0 0 0 0 0 0 0 1 2 2 1 2 3 2 1 0 0 0 0 0 0 0 0 0 0 0 0 0 0 0 0 0 1 1 0 0 0
1 1 1 0 0 0 0 0 0 0 0 0 0 0 0 0 0 0 0 1 2 2 1 1 2 1 0 0 0 0 1 1 1 0 0 0 0 0 0 0 0 0 0 0 1 1 0 0 0
1 2 1 0 0 0 0 0 0 0 0 0 0 0 0 0 0 0 0 1 1 1 0 1 1 1 0 0 1 1 2 2 2 1 1 1 1 1 0 0 0 0 0 0 1 1 0 0 0
2 2 1 0 0 0 0 0 0 0 0 0 0 0 0 0 1 1 0 0 0 0 1 2 2 1 0 1 2 2 2 3 3 3 2 2 2 1 0 0 0 0 0 0 0 0 0 0 0
1 1 0 0 0 0 0 0 0 0 0 0 0 0 0 1 2 2 1 0 0 0 1 2 2 1 0 1 2 2 2 3 3 3 3 3 2 1 0 0 0 0 0 0 0 0 0 0 0
0 0 0 0 0 0 0 0 0 0 0 0 0 0 0 1 2 2 1 0 0 0 0 1 1 0 0 0 1 2 2 3 3 3 3 3 1 0 0 0 0 0 0 0 0 0 0 0 0
0 0 0 0 0 0 0 0 0 0 0 0 0 0 0 0 1 1 0 0 0 0 0 0 0 0 0 0 0 1 3 3 3 3 3 2 1 0 0 0 0 0 0 0 0 0 0 0 0
0 0 0 0 0 0 0 0 0 0 0 0 0 0 0 0 0 0 1 2 1 1 0 0 0 0 0 0 0 1 2 3 3 3 3 2 1 0 0 0 0 0 0 0 0 0 0 0 0
0 0 0 0 0 0 0 0 0 0 0 0 0 0 0 0 0 1 2 3 3 2 1 0 0 0 0 0 0 0 1 1 2 2 2 1 0 0 0 0 0 0 0 0 0 0 0 0 0
0 0 0 0 0 0 0 0 0 0 0 0 0 0 0 0 0 1 2 3 3 3 2 1 0 0 0 0 0 0 0 0 1 1 1 0 0 0 0 0 0 0 0 0 0 0 0 0 0
0 0 0 0 0 0 0 0 0 0 0 0 0 1 1 1 1 1 2 3 3 3 2 1 0 0 0 0 0 0 0 0 0 0 0 0 0 0 0 0 0 0 0 0 0 0 0 0 0
0 0 0 0 0 0 0 1 0 0 0 0 0 1 2 2 1 1 1 1 2 3 2 1 0 0 0 0 0 0 0 0 0 0 0 0 0 0 0 0 0 0 0 0 0 0 0 0 0
0 0 0 0 0 0 0 0 0 0 0 0 0 1 1 1 1 0 0 0 1 1 2 1 0 0 0 0 0 0 0 0 0 0 0 0 0 0 0 0 0 0 0 0 0 0 0 0 0
0 0 0 0 0 0 0 0 0 0 0 0 0 0 0 0 0 0 0 0 0 0 1 1 1 0 0 0 0 0 0 0 0 0 0 0 0 0 0 0 0 0 0 0 0 0 0 0 0
0 0 0 0 0 0 0 0 0 0 0 0 0 0 0 0 0 0 0 0 0 0 1 2 2 1 1 0 0 0 0 0 0 0 0 0 0 0 0 0 0 0 0 0 0 0 0 0 0
0 0 0 0 0 0 0 0 0 0 0 0 0 0 0 0 0 0 0 0 0 0 1 3 3 3 2 1 0 0 0 0 0 0 0 0 0 0 0 0 0 0 0 0 0 0 0 0 0
0 0 0 0 0 0 0 0 0 0 0 0 0 0 0 0 0 0 0 0 0 0 1 2 3 3 2 1 0 0 0 0 0 0 0 0 0 0 0 0 0 0 0 0 0 0 0 0 0
0 0 0 0 0 0 0 0 0 0 0 0 0 0 0 0 0 0 0 0 0 0 0 1 2 3 2 1 1 1 1 0 0 0 0 0 0 0 0 0 0 0 0 0 0 0 0 0 0
0 0 0 0 0 0 0 0 0 0 0 0 0 0 0 0 0 0 0 0 0 0 0 0 1 2 1 1 1 1 1 0 0 0 0 0 0 0 0 0 0 0 0 0 0 0 0 0 0
0 0 0 0 0 0 0 0 0 0 0 0 0 0 0 0 0 0 0 0 0 0 0 0 0 0 0 0 1 1 0 0 0 0 0 0 0 0 0 0 0 0 0 0 0 0 0 0 0
0 0 0 0 0 0 0 0 0 0 0 0 0 0 0 0 0 0 0 0 0 0 0 0 0 0 0 0 0 0 0 0 0 0 0 0 0 0 0 0 0 0 0 0 0 0 0 0 0
0 0 0 0 0 0 0 0 0 0 0 0 0 0 0 0 0 0 0 0 0 0 0 0 0 0 0 0 0 0 0 0 0 0 0 0 0 0 0 0 0 0 0 0 0 0 0 0 0
0 0 0 0 0 0 0 0 0 0 0 0 0 0 0 0 0 0 0 0 0 0 0 0 0 0 0 0 0 0 0 0 0 0 0 0 0 0 0 0 0 0 0 0 0 0 0 0 0
0 0 0 0 0 0 0 0 0 0 0 0 0 0 0 0 0 0 0 0 0 0 0 0 0 0 0 0 0 0 0 0 0 0 0 0 0 0 0 0 0 0 0 0 0 0 0 0 0
0 0 0 0 0 0 0 0 0 0 0 0 0 0 0 0 1 1 0 0 0 0 0 0 0 0 0 0 0 0 0 0 0 0 0 0 0 0 0 0 0 0 0 0 0 0 0 0 0
0 0 0 0 0 0 0 0 0 0 0 0 0 0 1 1 2 2 1 0 0 0 0 0 0 0 0 0 0 0 0 0 0 0 0 0 0 0 0 0 0 0 0 0 0 0 0 0 0
0 0 0 0 0 0 0 0 0 0 0 0 0 0 1 2 2 1 1 0 0 0 0 0 0 0 0 0 0 0 0 0 0 0 0 0 0 0 0 0 0 0 0 0 0 0 0 0 0
0 0 0 0 0 0 0 0 0 0 0 0 0 0 1 1 1 0 0 0 0 0 0 0 0 0 0 0 0 0 0 0 0 0 0 1 1 2 1 0 0 0 0 0 0 0 0 0 0
0 0 0 0 0 0 0 0 0 0 0 0 0 0 0 1 0 0 0 0 0 0 0 0 0 0 0 0 0 0 0 0 0 0 0 1 2 2 2 1 0 0 0 0 0 0 0 0 0
0 0 0 0 0 0 0 0 0 0 0 0 0 0 1 1 1 0 0 0 1 1 1 0 0 0 0 0 0 0 0 0 0 0 0 0 1 2 2 2 1 0 0 0 0 0 0 0 0
Wind_Speed
2 0 2 3 5 5 2 1 2 2 3 4 7 9 8 6 4 5 2 6 7 5 4 5 7 7 7 7 7 7 7 8 8 9 10 10 9 10 10 10 11 11 11 11 11 11 11 10 10
1 1 3 4 5 3 1 0 3 3 4 6 7 8 7 6 5 6 3 6 7 6 4 5 7 7 8 7 7 6 7 8 8 9 10 10 9 9 10 10 10 10 10 11 11 11 11 10 10
1 1 3 4 3 2 2 1 3 3 4 5 5 5 5 4 4 4 5 9 7 6 4 5 8 8 8 7 6 6 6 7 9 10 10 10 10 10 10 10 10 10 10 10 10 10 10 10 10
2 4 5 5 3 1 3 3 3 4 4 5 6 6 4 3 3 5 8 9 8 5 4 5 8 8 8 7 7 7 7 9 10 11 10 10 10 10 10 10 10 10 10 10 10 9 9 10 10
4 4 5 3 2 1 1 2 4 5 3 4 7 6 4 3 6 9 9 9 8 5 4 5 8 8 8 8 8 8 9 11 11 11 11 10 10 10 10 10 10 10 9 9 9 8 9 9 10
4 4 4 2 1 1 1 2 5 7 6 5 7 6 3 2 6 7 8 7 7 6 4 4 8 9 8 8 9 10 11 12 12 11 10 10 10 10 10 10 10 9 9 9 8 8 8 9 10
4 4 2 2 1 1 1 1 4 5 5 3 5 6 3 1 3 6 7 7 6 6 4 3 3 4 7 8 8 9 10 10 10 10 10 9 9 9 9 9 9 9 8 8 8 7 8 9 9
4 4 2 1 2 1 1 2 3 5 4 4 5 7 5 4 4 6 6 6 5 4 4 3 2 2 2 3 6 7 8 8 8 8 8 8 7 7 8 7 7 7 7 7 6 7 7 8 9
5 5 1 1 2 1 1 4 3 4 6 5 4 4 6 8 7 6 5 4 4 4 3 3 2 1 1 2 3 4 5 5 5 5 6 5 3 3 3 4 6 6 6 6 6 6 7 7 8
5 4 2 2 3 3 3 4 4 5 6 5 6 6 7 8 8 6 6 5 4 3 3 3 2 2 1 2 2 1 1 2 2 2 2 2 2 1 2 3 4 4 4 5 5 6 6 6 3
4 4 3 1 2 4 4 3 3 6 4 4 7 8 7 7 6 5 5 4 4 4 4 3 3 2 2 1 1 1 1 1 1 2 2 2 2 1 1 1 1 2 3 3 4 4 3 3 3
3 2 2 2 3 4 4 3 4 5 4 5 8 9 7 7 6 5 4 3 3 3 2 2 3 3 2 2 1 1 1 1 1 1 2 2 2 1 1 1 1 1 1 2 2 2 3 3 4
3 2 2 2 4 5 6 5 5 3 5 7 9 9 7 6 5 4 4 4 3 4 3 3 4 3 3 2 1 1 1 1 1 1 1 3 2 2 1 1 1 1 1 2 2 2 3 3 3
3 3 2 2 3 3 7 3 4 3 5 8 9 7 6 6 5 4 4 4 3 3 2 2 3 3 3 2 1 1 1 1 1 1 1 2 2 2 2 1 1 1 1 1 2 2 3 2 3
3 2 1 1 2 2 6 3 2 5 6 7 6 6 6 5 4 5 5 5 4 3 2 2 3 3 3 2 2 2 1 2 2 1 2 2 2 3 2 2 1 1 1 2 3 3 3 3 3
2 2 1 3 3 2 6 2 3 4 8 6 5 4 5 4 4 4 5 4 4 3 3 2 3 3 3 2 2 1 2 2 2 2 2 2 3 3 2 2 1 1 2 2 3 2 2 2 2
2 1 2 3 2 3 5 4 5 4 8 7 6 5 5 4 3 3 5 5 5 4 4 3 3 4 3 3 2 2 2 2 2 2 2 2 3 3 3 2 1 2 2 2 2 2 2 2 2
3 3 2 3 2 4 4 4 4 5 7 7 6 5 5 5 5 4 5 5 5 4 4 4 3 3 3 2 2 2 2 2 2 2 2 2 2 3 2 2 2 2 2 2 2 2 2 1 1
4 3 3 3 3 4 4 4 5 5 5 6 5 5 6 5 4 4 4 5 4 3 3 3 3 2 3 2 2 2 1 1 1 1 2 2 2 2 3 2 2 2 2 2 2 2 2 2 1
3 2 2 2 3 4 3 4 3 4 7 8 8 7 7 5 4 4 4 4 4 4 3 3 3 3 2 2 2 2 1 1 1 0 1 1 2 2 2 2 2 2 2 2 2 2 2 1 1
2 3 4 3 0 2 2 2 2 3 3 5 6 6 7 9 8 7 5 4 4 4 4 4 3 3 3 3 2 2 2 2 1 1 1 1 1 1 2 2 2 2 2 2 1 2 3 1 1
3 4 4 3 2 1 2 2 5 4 4 5 6 6 6 7 7 6 6 5 5 5 3 3 3 3 3 3 3 3 2 1 1 1 0 0 0 1 1 2 2 2 2 2 1 2 2 2 1
4 4 2 2 2 1 1 2 6 2 5 7 8 8 7 7 8 8 7 7 6 5 4 3 3 3 2 3 4 3 2 1 1 0 1 1 1 0 0 1 1 1 2 2 2 2 2 2 2
2 4 5 5 4 1 4 3 5 4 7 7 7 7 8 7 7 7 6 5 4 4 4 3 4 3 3 3 3 3 3 2 2 2 1 0 0 0 1 0 1 1 1 2 2 2 2 2 2
4 6 4 4 3 4 2 2 6 6 6 7 8 8 7 7 7 6 5 5 5 5 5 4 4 3 3 3 3 3 3 4 4 3 3 2 1 1 1 1 1 1 1 1 1 1 1 2 2
3 7 6 4 3 4 2 3 5 4 2 3 5 6 6 7 6 6 6 6 6 6 5 4 4 3 3 3 3 3 3 2 2 3 3 3 2 2 2 1 1 1 1 1 1 1 1 1 2
4 3 6 6 1 1 3 3 4 1 1 3 4 5 6 7 7 7 6 5 6 5 6 6 5 3 3 3 3 2 2 2 2 2 2 2 2 2 2 2 1 1 0 0 1 1 1 1 1
5 6 5 4 3 2 3 3 4 4 4 4 5 5 6 6 6 6 5 5 5 4 4 4 4 4 3 3 3 2 2 2 2 2 2 2 2 2 2 1 1 1 0 0 1 1 1 1 1
2 2 4 4 4 4 3 5 5 8 8 8 7 6 6 6 6 6 5 4 4 3 3 3 3 2 2 2 2 1 1 1 1 1 2 2 2 2 2 2 2 1 1 0 1 1 1 1 0
4 4 6 4 3 3 3 7 4 6 6 7 7 6 6 6 5 5 4 3 3 3 3 3 3 3 2 2 2 2 1 1 1 0 1 1 1 1 2 2 2 2 1 1 1 1 1 1 1
Wind_Direction
268 56 92 60 54 54 50 28 128 57 54 54 73 82 85 70 86 128 178 141 134 135 130 119 112 108 103 99 98 95 95 96 95 94 92 88 85 83 84 84 83 81 78 78 76 75 76 79 83
27 83 66 57 75 72 13 341 111 97 122 110 79 78 78 74 87 113 132 145 138 133 129 122 116 110 104 100 97 96 99 103 102 98 95 92 89 87 87 86 84 82 80 79 79 78 77 76 75
343 78 76 66 83 134 150 190 144 115 94 93 82 57 73 97 105 133 154 144 129 124 123 127 120 112 108 101 95 98 109 114 113 107 102 97 91 87 87 84 83 84 83 81 80 79 78 76 75
61 46 56 71 75 170 158 173 136 107 66 64 97 70 54 55 121 135 137 133 125 124 125 130 121 117 110 99 90 97 106 117 119 111 106 100 94 90 89 86 84 85 84 81 81 81 79 78 76
66 71 64 63 61 3 104 134 108 100 90 81 95 91 59 25 98 118 125 128 128 129 129 131 124 120 113 100 89 97 102 111 115 112 107 102 98 95 93 91 87 84 84 83 81 82 80 78 77
60 67 79 87 78 35 48 75 92 90 93 91 95 101 89 75 105 122 126 130 130 133 131 132 128 124 116 106 96 95 100 104 110 111 108 103 100 97 95 94 91 87 86 83 82 82 81 80 78
101 89 110 137 112 78 155 84 89 98 89 90 113 104 120 133 134 130 127 127 129 130 124 114 120 123 121 115 109 106 106 106 109 112 111 107 103 100 97 96 95 92 89 84 81 81 81 79 78
121 98 71 61 116 129 196 100 97 102 92 90 104 125 161 191 155 127 120 119 123 126 128 123 111 104 111 115 119 114 113 114 115 117 117 115 110 105 101 98 95 96 94 87 82 80 81 82 78
89 81 99 193 148 183 120 97 63 63 85 62 69 122 155 150 130 115 108 105 119 132 136 134 128 121 127 133 130 120 120 117 119 120 120 111 99 98 98 106 103 100 95 88 84 80 81 77 74
89 113 195 191 153 143 86 96 111 81 72 68 70 82 117 128 131 132 134 136 135 142 144 140 143 156 146 134 104 93 102 98 101 109 115 110 113 120 119 108 109 100 86 77 77 79 71 64 60
125 153 174 150 142 131 104 73 80 110 95 141 140 139 134 125 130 140 144 146 148 145 139 142 149 152 137 110 112 85 80 94 109 126 133 125 114 101 89 68 68 62 66 51 48 54 54 61 69
119 152 148 133 110 109 112 106 82 106 161 159 143 142 137 131 138 146 147 148 133 112 132 148 145 141 133 118 121 114 99 96 103 128 133 127 120 115 117 110 78 56 62 63 49 56 68 75 77
123 153 126 121 103 116 106 101 103 96 129 123 125 125 131 135 142 147 139 124 115 116 142 162 150 144 140 126 131 123 117 117 125 111 123 133 132 133 132 143 124 93 87 90 82 75 82 85 85
169 155 165 148 124 127 113 102 99 130 133 129 134 137 141 141 150 136 126 132 143 138 143 135 128 138 132 127 132 137 128 116 105 115 127 133 135 134 131 116 104 93 97 103 101 96 91 88 88
144 112 354 222 157 164 108 61 139 161 140 138 144 143 144 151 154 154 162 158 164 159 140 137 133 122 122 125 128 119 104 95 92 98 104 102 114 124 124 110 93 89 95 99 90 81 80 85 80
60 91 236 261 173 170 121 181 229 172 147 150 155 152 148 160 167 163 156 148 148 132 121 132 116 109 115 116 106 94 90 85 86 85 83 82 98 112 115 111 104 96 98 101 100 88 84 78 78
23 177 222 268 194 153 135 189 223 184 157 164 169 172 164 154 165 167 154 150 147 142 133 123 113 112 111 108 96 87 88 83 81 75 70 71 86 99 110 112 101 92 91 96 111 93 102 101 87
217 206 212 218 220 145 146 197 211 188 167 170 176 175 169 166 184 177 155 152 145 138 130 124 117 122 116 103 84 66 69 69 69 76 72 77 80 91 102 103 90 91 91 83 89 97 83 101 110
195 193 228 237 203 148 172 202 215 197 175 175 180 179 180 183 191 176 160 150 137 130 125 123 121 135 126 113 107 101 93 70 59 67 81 88 86 97 103 95 92 88 100 113 111 105 90 70 79
192 200 246 269 194 161 179 232 229 195 191 186 184 186 184 174 167 184 176 153 151 154 145 139 138 144 148 140 143 153 150 142 147 85 76 94 109 111 121 114 113 106 99 87 85 94 101 68 72
202 200 212 211 95 83 117 312 274 254 213 190 188 186 181 178 178 184 181 169 156 159 165 165 166 154 153 138 113 88 63 42 28 11 22 22 93 109 121 133 134 126 121 127 123 121 123 135 3
233 227 202 184 130 257 160 245 268 233 218 203 201 193 188 185 179 179 178 170 173 181 174 167 164 153 151 139 131 134 141 160 217 220 209 357 87 101 106 127 136 141 136 149 171 140 135 135 154
212 220 189 168 151 334 315 168 274 219 214 220 209 199 193 184 175 178 181 177 178 174 170 168 157 152 156 153 150 151 153 184 178 168 105 46 12 73 115 145 138 150 158 172 176 154 145 142 160
152 55 37 51 75 295 247 184 264 227 212 209 208 199 193 185 180 184 186 174 170 168 162 154 155 163 165 164 163 164 169 171 145 159 147 193 315 314 325 173 158 171 176 182 186 172 157 155 157
83 82 37 4 10 255 261 181 250 251 210 193 192 192 189 179 176 177 176 173 171 170 168 161 157 171 181 177 180 185 186 175 173 177 176 184 204 247 260 213 174 197 209 199 170 154 163 156 156
172 139 154 190 217 276 322 239 264 272 201 180 173 173 169 168 173 177 179 177 178 178 173 167 168 176 186 192 196 191 183 177 188 186 173 183 201 216 215 191 175 196 217 207 167 155 174 154 164
155 173 169 143 180 248 280 288 312 23 115 154 149 147 162 173 176 179 174 171 174 175 177 176 175 182 190 193 189 190 194 180 183 186 180 187 204 202 192 187 172 158 157 161 159 166 189 166 178
159 153 103 120 160 241 279 256 234 215 202 175 164 169 178 175 176 176 173 176 180 181 181 175 175 181 188 180 183 182 200 197 185 170 180 189 204 192 158 154 154 148 158 160 143 155 180 149 195
151 135 127 136 156 163 229 263 231 202 190 177 178 177 175 169 169 169 170 171 166 159 156 162 172 170 172 175 165 137 165 182 161 166 197 199 201 189 172 173 164 164 154 125 130 173 145 154 214
168 173 147 152 212 179 186 264 283 199 179 165 166 166 160 157 156 153 153 145 145 149 152 157 160 162 173 161 139 139 139 131 145 185 238 210 195 203 196 180 168 173 172 162 147 160 148 170 207